Location: Austin
(30.3000°N, 97.7500°W)
Time: 04:06:42
(UTC-06:00)

Cosmos 1980 - Pass Details

Date: 20 November 2023
Orbit: 837 x 848 km, 71.0° (Epoch: 04 December)

Event Time Altitude Azimuth Distance (km) Brightness Sun altitude
Rises 19:54:44 0° 333° (NNW) 3,410 7.1 -30.5°
Reaches altitude 10° 19:57:14 10° 328° (NNW) 2,472 6.4 -31.1°
Maximum altitude 20:02:41 49° 255° (WSW) 1,077 4.5 -32.2°
Enters shadow 20:04:37 35° 204° (SSW) 1,337 4.9 -32.7°
